EW5807 Weather Reports


Display with metric or nautical units.
time (UTC)temp
F
wind
direction
speed
MPH
gust
MPH
rain 1hr
in
rain 24hr
in
rain mn
in
humidity
%
barometer
mb
20260508090023 44 58 0.0 2.0 0.00 0.00 0.00 56 1010.2
20260508084518 47 60 0.0 1.0 0.00 0.00 0.00 51 1010.2
20260508083017 50 104 0.0 0.0 0.00 0.00 0.00 46 1010.2
20260508081517 49 146 0.0 3.0 0.00 0.00 0.00 47 1010.4
20260508080016 50 141 1.0 3.0 0.00 0.00 0.00 47 1010.4
20260508074517 48 148 0.0 2.0 0.00 0.00 0.00 50 1010.3
20260508073013 44 141 0.0 1.0 0.00 0.00 0.00 61 1010.3
20260508071509 45 241 0.0 3.0 0.00 0.00 0.00 53 1009.9
20260508070007 48 47 0.0 3.0 0.00 0.00 0.00 53 1009.8
20260508064552 50 70 0.0 1.0 0.00 0.00 0.00 50 1009.7
20260508063032 53 86 0.0 0.0 0.00 0.00 0.00 44 1009.7
20260508061528 52 59 0.0 2.0 0.00 0.00 0.00 46 1009.7
20260508060034 53 72 0.0 2.0 0.00 0.00 0.00 44 1009.7
20260508054535 56 93 0.0 1.0 0.00 0.00 0.00 38 1009.7
20260508053020 57 113 0.0 1.0 0.00 0.00 0.00 36 1009.7
20260508051547 59 116 0.0 2.0 0.00 0.00 0.00 35 1009.5
20260508050046 60 113 0.0 1.0 0.00 0.00 0.00 33 1009.4
20260508044544 60 141 0.0 0.0 0.00 0.00 0.00 34 1009.4
20260508043049 59 126 0.0 1.0 0.00 0.00 0.00 35 1009.6
20260508041541 60 109 0.0 2.0 0.00 0.00 0.00 34 1009.2
20260508040048 61 126 0.0 3.0 0.00 0.00 0.00 33 1009.1
20260508034536 61 120 0.0 1.0 0.00 0.00 0.00 34 1008.8
20260508033034 62 114 0.0 2.0 0.00 0.00 0.00 32 1008.5
20260508031528 64 137 0.0 3.0 0.00 0.00 0.00 31 1008.3
20260508030028 65 125 0.0 2.0 0.00 0.00 0.00 29 1008.1
20260508024522 69 257 0.0 0.0 0.00 0.00 0.00 27 1007.9
20260508023048 70 257 0.0 0.0 0.00 0.00 0.00 26 1007.8
20260508021546 71 243 0.0 1.0 0.00 0.00 0.00 25 1007.7
20260508020042 70 286 0.0 5.0 0.00 0.00 0.00 24 1007.8
20260508014538 71 238 3.0 10.0 0.00 0.00 0.00 23 1007.8
20260508013036 72 300 7.0 11.0 0.00 0.00 0.00 22 1007.8
20260508011543 72 288 3.0 8.0 0.00 0.00 0.00 24 1008.0
20260508010037 72 316 3.0 9.0 0.00 0.00 0.00 24 1008.1
20260508004537 73 295 6.0 11.0 0.00 0.00 0.00 22 1008.1
20260508003026 73 269 3.0 10.0 0.00 0.00 0.00 22 1008.3
20260508001529 73 281 8.0 14.0 0.00 0.00 0.00 21 1008.4
20260508000022 73 292 7.0 14.0 0.00 0.00 0.00 21 1008.4
20260507234530 74 297 5.0 10.0 0.00 0.00 0.00 22 1008.5
20260507233025 74 289 5.0 18.0 0.00 0.00 0.00 21 1008.6
20260507231517 74 302 11.0 18.0 0.00 0.00 0.00 20 1008.8
20260507230014 75 321 6.0 16.0 0.00 0.00 0.00 20 1009.1
20260507224519 74 281 9.0 20.0 0.00 0.00 0.00 18 1009.1
20260507223013 76 269 9.0 19.0 0.00 0.00 0.00 18 1009.0
20260507221509 77 299 9.0 18.0 0.00 0.00 0.00 20 1009.3
20260507220006 76 300 10.0 17.0 0.00 0.00 0.00 20 1009.4
20260507214504 76 288 12.0 21.0 0.00 0.00 0.00 20 1009.7
20260507213100 75 264 12.0 19.0 0.00 0.00 0.00 20 1009.9
20260507211606 74 276 10.0 24.0 0.00 0.00 0.00 22 1010.3
20260507210028 75 292 12.0 19.0 0.00 0.00 0.00 21 1010.8
20260507204525 76 234 12.0 18.0 0.00 0.00 0.00 21 1010.9
20260507203020 75 321 12.0 19.0 0.00 0.00 0.00 22 1011.0
20260507201518 73 297 10.0 16.0 0.00 0.00 0.00 25 1011.1
20260507200014 74 219 8.0 16.0 0.00 0.00 0.00 24 1011.4
20260507194513 74 244 9.0 16.0 0.00 0.00 0.00 25 1011.5
20260507193011 73 279 9.0 21.0 0.00 0.00 0.00 24 1011.8
20260507191508 72 278 8.0 15.0 0.00 0.00 0.00 27 1012.0
20260507190003 72 306 11.0 21.0 0.00 0.00 0.00 27 1012.2
20260507184600 72 255 10.0 18.0 0.00 0.00 0.00 27 1012.4
20260507183055 70 296 5.0 10.0 0.00 0.00 0.00 28 1012.6
20260507181554 71 290 9.0 17.0 0.00 0.00 0.00 28 1012.7
20260507180059 70 243 4.0 13.0 0.00 0.00 0.00 29 1012.8
20260507174617 69 225 6.0 14.0 0.00 0.00 0.00 29 1013.1
20260507173023 67 250 4.0 10.0 0.00 0.00 0.00 30 1013.3
20260507171520 67 255 5.0 12.0 0.00 0.00 0.00 30 1013.6
20260507170015 65 187 6.0 11.0 0.00 0.00 0.00 31 1013.7
20260507164514 67 203 5.0 13.0 0.00 0.00 0.00 31 1013.9
20260507163019 66 186 4.0 13.0 0.00 0.00 0.00 30 1014.0
20260507161516 65 195 8.0 15.0 0.00 0.00 0.00 30 1014.0
20260507160013 65 214 5.0 13.0 0.00 0.00 0.00 31 1014.3
20260507154512 64 238 8.0 13.0 0.00 0.00 0.00 30 1014.3
20260507153013 63 198 8.0 13.0 0.00 0.00 0.00 31 1014.4
20260507151511 63 228 6.0 10.0 0.00 0.00 0.00 31 1014.5
20260507150006 61 205 6.0 11.0 0.00 0.00 0.00 33 1014.5
20260507144505 60 238 4.0 10.0 0.00 0.00 0.00 34 1014.6
20260507143005 59 203 5.0 10.0 0.00 0.00 0.00 35 1014.4
20260507141504 58 205 6.0 11.0 0.00 0.00 0.00 35 1014.2
20260507140115 55 226 4.0 8.0 0.00 0.00 0.00 39 1014.1
20260507134610 52 231 5.0 12.0 0.00 0.00 0.00 39 1013.9
20260507133103 0 0.0 0.0 0.00 0.00 0.00 1013.7
20260507131616 0 0.0 0.0 0.00 0.00 0.00 1013.5
20260507130047 0 0.0 0.0 0.00 0.00 0.00 1013.5
20260507124517 0 0.0 0.0 0.00 0.00 0.00 1013.5
20260507123009 0 0.0 0.0 0.00 0.00 0.00 1013.7
20260507121503 0 0.0 0.0 0.00 0.00 0.00 1013.9
20260507120059 0 0.0 0.0 0.00 0.00 0.00 1014.1
20260507114557 51 231 4.0 10.0 0.00 0.00 0.00 40 1014.2
20260507113128 51 233 5.0 10.0 0.00 0.00 0.00 40 1014.3
20260507111553 51 245 5.0 8.0 0.00 0.00 0.00 41 1014.4
20260507110052 53 205 4.0 9.0 0.00 0.00 0.00 38 1014.4
20260507104600 52 238 6.0 10.0 0.00 0.00 0.00 40 1014.5
20260507103050 53 221 6.0 10.0 0.00 0.00 0.00 39 1014.4
20260507101524 54 197 6.0 10.0 0.00 0.00 0.00 38 1014.4
20260507100031 51 222 4.0 7.0 0.00 0.00 0.00 42 1014.5
20260507094515 50 188 6.0 13.0 0.00 0.00 0.00 45 1014.6
20260507093014 44 229 0.0 1.0 0.00 0.00 0.00 57 1014.7
20260507091511 44 205 0.0 2.0 0.00 0.00 0.00 56 1014.9